This is the latest recevied weather packets stored in our database for station/object F4JSG-10. If no packets are shown the sender has not sent any weather packets the latest 1 day(s).
| Time | Temp. | Humidity | Pressure | Rain* | Wind** | Luminosity | Snow |
|---|---|---|---|---|---|---|---|
| 1777773934 | 14.44° C | 57% | 988.9 hPa | - | - | - | - |
| 1777773040 | 14.44° C | 54% | 989.1 hPa | - | - | - | - |
| 1777773034 | 14.44° C | 54% | 989.1 hPa | - | - | - | - |
| 1777772140 | 14.44° C | 54% | 989.2 hPa | - | - | - | - |
| 1777772134 | 14.44° C | 54% | 989.2 hPa | - | - | - | - |
| 1777771236 | 15° C | 58% | 989.4 hPa | - | - | - | - |
| 1777771233 | 15° C | 58% | 989.4 hPa | - | - | - | - |
| 1777770336 | 15° C | 55% | 989.6 hPa | - | - | - | - |
| 1777770333 | 15° C | 55% | 989.6 hPa | - | - | - | - |
| 1777769436 | 15.56° C | 51% | 989.5 hPa | - | - | - | - |
| 1777769432 | 15.56° C | 51% | 989.5 hPa | - | - | - | - |
| 1777768535 | 15.56° C | 51% | 989.6 hPa | - | - | - | - |
| 1777768532 | 15.56° C | 51% | 989.6 hPa | - | - | - | - |
| 1777767635 | 15.56° C | 52% | 989.7 hPa | - | - | - | - |
| 1777767632 | 15.56° C | 52% | 989.7 hPa | - | - | - | - |
| 1777766735 | 15.56° C | 51% | 989.8 hPa | - | - | - | - |
| 1777766732 | 15.56° C | 51% | 989.8 hPa | - | - | - | - |
| 1777765835 | 16.11° C | 50% | 990 hPa | - | - | - | - |
| 1777765832 | 16.11° C | 50% | 990 hPa | - | - | - | - |
| 1777764935 | 16.11° C | 49% | 990 hPa | - | - | - | - |
| 1777764932 | 16.11° C | 49% | 990 hPa | - | - | - | - |
| 1777764035 | 16.11° C | 52% | 990 hPa | - | - | - | - |
| 1777764031 | 16.11° C | 52% | 990 hPa | - | - | - | - |
| 1777763131 | 16.67° C | 52% | 990 hPa | - | - | - | - |
| 1777762231 | 17.22° C | 45% | 989.9 hPa | - | - | - | - |
* Rain since midnight (hover to see other rain measurements)
** Current wind speed in m/s (hover to see current wind gust speed)